Hourly Data Report for October 12, 2012

All times are specified in Local Standard Time (LST). Add 1 hour to adjust for Daylight Saving Time where and when it is observed.

IQALUIT CLIMATE
NUNAVUT

63°44'50.000" N
68°32'40.000" W
33.50 m
2402592
71321
XFB

Download Data

Hourly Data (October 2012)
Hourly Data Report for October 12, 2012
Temp Definition
°C
Dew Point Temp Definition
°C
Rel Hum Definition
%
Wind Dir Definition
10's deg

Wind Spd Definition
km/h
Visibility Definition
km
Stn Press Definition
kPa
Hmdx Definition


Wind Chill Definition


Weather Definition


TIME
00:00 0.7 0.7 100 14 13   98.46     LegendNANA
01:00 1.2 1.2 100 14 19   98.47     LegendNANA
02:00 0.5 0.5 100 11 7   98.51     LegendNANA
03:00 2.1 2.1 100 14 20   98.54     LegendNANA
04:00 2.5 2.3 99 13 20   98.56     LegendNANA
05:00 2.8 2.2 96 12 32   98.61     LegendNANA
06:00 3.3 2.2 92 12 32   98.62     LegendNANA
07:00 3.0 1.9 92 14 24   98.71     LegendNANA
08:00 2.8 1.1 89 13 19   98.73     LegendNANA
09:00 1.5 0.5 93 17 6   98.80     LegendNANA
10:00 1.5 1.1 97 14 11   98.84     LegendNANA
11:00 1.8 1.1 95 12 6   98.88     LegendNANA
12:00 2.3 0.8 90 24 2   98.90     LegendNANA
13:00 2.8 -1.0 76 15 4   98.93     LegendNANA
14:00 2.6 -1.0 77 17 2   98.96     LegendNANA
15:00 2.3 -1.1 78 15 4   99.05     LegendNANA
16:00 1.6 -0.8 84 20 2   99.13     LegendNANA
17:00 1.6 -1.6 79 12 7   99.21     LegendNANA
18:00 1.5 -1.5 80 20 2   99.25     LegendNANA
19:00 1.0 -0.7 88 32 4   99.27     LegendNANA
20:00 1.1 -0.2 91 9 2   99.28     LegendNANA
21:00 0.6 0.5 99 29 7   99.30     LegendNANA
22:00 0.6 0.6 100 32 11   99.31     LegendNANA
23:00 0.8 0.8 100 33 11   99.33     LegendNANA

Notes on Data Quality.

Legend

  • E = Estimated
  • M = Missing
  • NA = Not Available
  • ‡ = Partner data that is not subject to review by the National Climate Archives
Date modified: